Regional Weather Roundup
Issued by NWS Cleveland, OH

Home | Current Version | Previous Version | Graphics & Text | Print | Product List | Glossary On
Versions: 1 2 3 4 5 6 7 8 9 10 11 12 13 14 15 16 17 18 19 20 21 22 23 24 25 26 27 28 29 30 31 32 33 34 35 36 37 38 39 40 41 42 43 44 45 46 47 48 49 50
000
ASUS41 KCLE 190402
RWRCLE
OHIO REGIONAL WEATHER ROUNDUP
NATIONAL WEATHER SERVICE CLEVELAND, OH
1100 PM EST THU DEC 18 2014

NOTE: "FAIR" INDICATES FEW OR NO CLOUDS BELOW 12,000 FEET WITH NO
SIGNIFICANT WEATHER AND/OR OBSTRUCTIONS TO VISIBILITY.

OHZ001>008-015>018-024>027-034-035-043-044-190500-
   NORTHWEST OHIO

CITY           SKY/WX    TMP DP  RH WIND       PRES   REMARKS
DEFIANCE       CLOUDY    29  24  82 NW5       30.22S WCI  24
FINDLAY        CLOUDY    29  24  82 SW7       30.20R WCI  22
TOLEDO EXPRESS CLOUDY    29  25  85 W10       30.20S WCI  20
TOLEDO EXEC    CLOUDY    31  25  78 W8        30.21R WCI  23
LIMA           CLOUDY    30  23  75 W7        30.21R HAZE    WCI  23
$$

OHZ009>014-019>023-028>033-038-089-190500-
   NORTHEAST OHIO

CITY           SKY/WX    TMP DP  RH WIND       PRES   REMARKS
CLE-HOPKINS    FRZ DRZL  29  26  89 W9        30.19R WCI  20
CLE-LAKEFRONT  LGT SNOW  31  27  85 SW13      30.16S FOG     WCI  21
CUY CO. ARPT   LGT SNOW  32  30  93 W12       30.15S WCI  23
LORAIN-ELYRIA  CLOUDY    29  26  89 W9        30.18S WCI  20
ASHTABULA      CLOUDY    30  28  92 W5        30.13S WCI  25
AKRON-CANTON   CLOUDY    28  25  88 W7        30.15S FOG     WCI  21
WOOSTER        CLOUDY    28  25  88 W9        30.17R WCI  19
MANSFIELD      CLOUDY    27  25  92 W6        30.16S WCI  20
YOUNGSTOWN     FRZ DRZL  28  26  92 W10       30.12S FOG     WCI  19
$$

OHZ042-051>053-060>062-070>072-077>081-190500-
  SOUTHWEST OHIO

CITY           SKY/WX    TMP DP  RH WIND       PRES   REMARKS
CINC-COVINGTON CLOUDY    29  20  69 N3        30.24R
CINC-LUNKEN    CLOUDY    28  21  75 NW3       30.27R
HAMILTON       PTCLDY    24  22  91 CALM      30.27R
DAYTON         CLOUDY    28  22  78 W5        30.23R WCI  23
WRIGHT-PAT AFB CLOUDY    28  22  78 NW6       30.23S WCI  21
DAYTON GENERAL CLOUDY    28  22  78 NW3       30.22R
WILMINGTON     CLOUDY    27  20  75 NW6       30.22R WCI  20
$$

OHZ036-037-039>041-045>050-054>059-063>069-073>076-082>088-190500-
  CENTRAL AND SOUTHEAST OHIO

CITY           SKY/WX    TMP DP  RH WIND       PRES   REMARKS
COLUMBUS       CLOUDY    28  22  78 W6        30.21S WCI  22
OSU AIRPORT    CLOUDY    28  22  78 W7        30.21S WCI  21
BOLTON FIELD   NOT AVBL
RICKENBACK AFB NOT AVBL
NEWARK         CLOUDY    29  23  78 NW3       30.20S
MARION         CLOUDY    28  24  85 W7        30.20S FOG     WCI  21
LANCASTER      CLOUDY    29  23  78 NW5       30.22R WCI  24
ZANESVILLE     CLOUDY    27  23  85 SW3       30.20R
NEW PHILLY     CLOUDY    29  23  78 W5        30.19R WCI  24
$$



USA.gov is the U.S. government's official web portal to all federal, state and local government web resources and services.